Location: Oberwangen
(47.4286°N, 8.9679°E)
Time: 21:18:10
(UTC+00:00)

FALCON 9 DEB - Pass Details

Date: 17 October 2021
Orbit: 345 x 354 km, 53.0° (Epoch: 28 November)

Event Time Altitude Azimuth Distance (km) Brightness Sun altitude
Exits shadow 03:21:28 18° 120° (ESE) 1,018 5.5 -25.0°
Drops below altitude 10° 03:22:21 10° 120° (ESE) 1,374 6.2 -24.8°
Sets 03:24:23 0° 120° (ESE) 2,219 7.4 -24.5°
